M I D A S
Marine Information and Data Acquisition System
Tripno 1847 of the Zeeleeuw from 2010-03-23 08:42:18 to 2010-03-23 15:07:02
Back to CruiseResearch ActivitiesStationsMapUnderway DataData graphs

EquipmentUnitsComments
TimeDGPSUTC
LatitudeDGPSDM.mWGS84
LongitudeDGPSDM.mWGS84
SpeedMeteo Stationm/sRelative wind speed
DirectionMeteo StationdegRelative wind direction
TemperatureMeteo Stationdeg CelciusAir temperature
PressureMeteo StationPaAtmospheric pressure
HumidityMeteo Station%Relative humidity
Missing or incorrect values are displayed as -999
Metereological data collected by the RV Zeeleeuw from 2010-03-23 08:38:44 to 2010-03-23 15:08:08
                                                                                    Next 1000 lines
Time Latitude Longitude Speed Direction Temperature Pressure Humidity
2010-03-23 08:38:54 51°13.661 2°55.957 -999 282 6.6 102040 45
2010-03-23 08:38:59 51°13.662 2°55.955 -999 23 6.6 102040 45
2010-03-23 08:39:04 51°13.663 2°55.953 -999 282 6.6 102040 45
2010-03-23 08:39:09 51°13.663 2°55.95 -999 23 6.6 102040 45
2010-03-23 08:39:14 51°13.664 2°55.947 -999 283 6.6 102040 45
2010-03-23 08:39:19 51°13.665 2°55.943 -999 23 6.6 102040 44
2010-03-23 08:39:25 51°13.667 2°55.938 -999 283 6.6 102040 44
2010-03-23 08:39:30 51°13.668 2°55.933 -999 23 6.6 102040 45
2010-03-23 08:39:36 51°13.669 2°55.927 -999 282 6.6 102040 45
2010-03-23 08:39:41 51°13.671 2°55.921 -999 254 6.7 102040 45
2010-03-23 08:39:47 51°13.672 2°55.914 -999 78 6.7 102040 45
2010-03-23 08:39:53 51°13.674 2°55.905 -999 23 6.6 102040 45
2010-03-23 08:39:57 51°13.675 2°55.9 -999 78 6.6 102040 45
2010-03-23 08:40:02 51°13.676 2°55.893 -999 23 6.7 102040 45
2010-03-23 08:40:07 51°13.677 2°55.886 -999 77 6.7 102040 45
2010-03-23 08:40:12 51°13.679 2°55.878 -999 23 6.7 102040 45
2010-03-23 08:40:17 51°13.68 2°55.87 -999 77 6.7 102040 45
2010-03-23 08:40:22 51°13.682 2°55.862 -999 23 6.7 102040 45
2010-03-23 08:40:28 51°13.683 2°55.853 0.1 78 6.7 102040 45
2010-03-23 08:40:32 51°13.684 2°55.846 0.1 23 6.7 102040 45
2010-03-23 08:40:38 51°13.686 2°55.836 0.1 78 6.7 102040 45
2010-03-23 08:40:42 51°13.687 2°55.83 -999 23 6.7 102040 44
2010-03-23 08:40:48 51°13.689 2°55.82 -999 78 6.7 102040 44
2010-03-23 08:40:52 51°13.69 2°55.814 -999 23 6.7 102040 45
2010-03-23 08:40:57 51°13.692 2°55.807 -999 78 6.7 102040 45
2010-03-23 08:41:02 51°13.693 2°55.799 -999 23 6.7 102040 45
2010-03-23 08:41:07 51°13.695 2°55.792 -999 77 6.7 102040 45
2010-03-23 08:41:12 51°13.696 2°55.784 -999 23 6.7 102030 45
2010-03-23 08:41:17 51°13.697 2°55.777 -999 78 6.7 102030 45
2010-03-23 08:41:22 51°13.698 2°55.771 -999 23 6.7 102040 45
2010-03-23 08:41:27 51°13.699 2°55.764 -999 78 6.7 102040 45
2010-03-23 08:41:32 51°13.7 2°55.758 -999 23 6.7 102040 45
2010-03-23 08:41:37 51°13.701 2°55.751 -999 78 6.7 102040 45
2010-03-23 08:41:42 51°13.702 2°55.746 -999 23 6.7 102040 45
2010-03-23 08:41:46 51°13.703 2°55.741 -999 77 6.7 102040 45
2010-03-23 08:41:51 51°13.703 2°55.737 -999 5 6.7 102040 44
2010-03-23 08:41:56 51°13.704 2°55.733 -999 4 6.7 102040 44
2010-03-23 08:42:01 51°13.704 2°55.73 0.1 355 6.7 102040 44
2010-03-23 08:42:06 51°13.704 2°55.728 0.1 356 6.7 102040 44
2010-03-23 08:42:11 51°13.704 2°55.726 -999 347 6.7 102040 45
2010-03-23 08:42:16 51°13.705 2°55.725 -999 349 6.7 102040 45
2010-03-23 08:42:21 51°13.705 2°55.724 -999 348 6.7 102040 45
2010-03-23 08:42:26 51°13.706 2°55.724 -999 348 6.7 102040 45
2010-03-23 08:42:30 51°13.706 2°55.723 -999 343 6.7 102030 45
2010-03-23 08:42:35 51°13.706 2°55.723 -999 282 6.7 102030 45
2010-03-23 08:42:40 51°13.707 2°55.723 -999 344 6.7 102030 45
2010-03-23 08:42:45 51°13.708 2°55.723 -999 283 6.7 102030 45
2010-03-23 08:42:50 51°13.709 2°55.723 -999 345 6.7 102040 45
2010-03-23 08:42:55 51°13.71 2°55.723 -999 345 6.7 102040 45
2010-03-23 08:43:00 51°13.711 2°55.724 -999 345 6.6 102030 45
2010-03-23 08:43:05 51°13.712 2°55.724 -999 282 6.6 102030 45
2010-03-23 08:43:10 51°13.713 2°55.724 -999 346 6.6 102040 45
2010-03-23 08:43:16 51°13.715 2°55.725 -999 283 6.6 102040 45
2010-03-23 08:43:21 51°13.716 2°55.725 -999 346 6.6 102040 45
2010-03-23 08:43:27 51°13.718 2°55.725 -999 283 6.6 102040 45
2010-03-23 08:43:32 51°13.72 2°55.726 -999 349 6.6 102030 45
2010-03-23 08:43:37 51°13.721 2°55.726 -999 349 6.6 102030 45
2010-03-23 08:43:42 51°13.723 2°55.726 -999 349 6.6 102040 45
2010-03-23 08:43:47 51°13.725 2°55.725 -999 349 6.6 102040 45
2010-03-23 08:43:53 51°13.728 2°55.725 -999 350 6.5 102040 45
2010-03-23 08:43:57 51°13.73 2°55.724 -999 350 6.5 102040 45
2010-03-23 08:44:02 51°13.732 2°55.723 -999 350 6.5 102040 45
2010-03-23 08:44:07 51°13.735 2°55.722 -999 350 6.5 102040 45
2010-03-23 08:44:12 51°13.738 2°55.72 -999 354 6.5 102040 45
2010-03-23 08:44:17 51°13.741 2°55.717 -999 352 6.5 102040 45
2010-03-23 08:44:22 51°13.745 2°55.715 0.1 351 6.5 102040 45
2010-03-23 08:44:26 51°13.748 2°55.712 0.1 348 6.5 102040 45
2010-03-23 08:44:31 51°13.753 2°55.708 0.1 350 6.5 102030 45
2010-03-23 08:44:36 51°13.758 2°55.703 -999 349 6.5 102030 45
2010-03-23 08:44:41 51°13.763 2°55.698 -999 350 6.5 102040 44
2010-03-23 08:44:46 51°13.77 2°55.692 0.1 345 6.5 102040 44
2010-03-23 08:44:50 51°13.775 2°55.687 0.7 344 6.5 102030 45
2010-03-23 08:44:56 51°13.783 2°55.68 1.4 287 6.5 102030 45
2010-03-23 08:45:00 51°13.789 2°55.675 2.1 341 6.5 102030 44
2010-03-23 08:45:05 51°13.797 2°55.668 1.6 283 6.5 102030 44
2010-03-23 08:45:10 51°13.805 2°55.661 2.4 340 6.5 102040 43
2010-03-23 08:45:15 51°13.813 2°55.654 2.6 285 6.5 102040 43
2010-03-23 08:45:20 51°13.823 2°55.647 2.5 341 6.5 102040 43
2010-03-23 08:45:25 51°13.832 2°55.64 2.1 277 6.5 102040 43
2010-03-23 08:45:29 51°13.839 2°55.635 2.5 338 6.5 102040 43
2010-03-23 08:45:34 51°13.848 2°55.627 2.6 285 6.5 102040 43
2010-03-23 08:45:39 51°13.857 2°55.618 2.6 335 6.5 102040 43
2010-03-23 08:45:44 51°13.867 2°55.611 2.8 282 6.5 102040 43
2010-03-23 08:45:49 51°13.877 2°55.603 2.9 339 6.5 102040 43
2010-03-23 08:45:54 51°13.887 2°55.595 3.5 283 6.5 102040 43
2010-03-23 08:45:58 51°13.895 2°55.589 3.6 337 6.5 102040 43
2010-03-23 08:46:04 51°13.908 2°55.58 3 280 6.5 102040 43
2010-03-23 08:46:09 51°13.918 2°55.572 2.9 340 6.5 102030 43
2010-03-23 08:46:14 51°13.928 2°55.563 2.4 286 6.5 102030 43
2010-03-23 08:46:18 51°13.937 2°55.557 2.5 340 6.5 102030 45
2010-03-23 08:46:24 51°13.95 2°55.547 2.2 281 6.5 102030 45
2010-03-23 08:46:29 51°13.961 2°55.539 2.2 336 6.6 102040 46
2010-03-23 08:46:34 51°13.972 2°55.531 2.5 281 6.6 102040 46
2010-03-23 08:46:38 51°13.981 2°55.524 3.1 339 6.5 102040 46
2010-03-23 08:46:44 51°13.994 2°55.514 3.6 279 6.5 102040 46
2010-03-23 08:46:49 51°14.006 2°55.506 2.7 341 6.5 102040 46
2010-03-23 08:46:54 51°14.017 2°55.498 2.9 285 6.5 102040 46
2010-03-23 08:46:58 51°14.027 2°55.492 3.1 339 6.5 102040 46
2010-03-23 08:47:04 51°14.041 2°55.482 2.6 278 6.5 102040 46
2010-03-23 08:47:09 51°14.052 2°55.474 2.7 339 6.5 102040 44
2010-03-23 08:47:14 51°14.064 2°55.465 2.8 339 6.5 102040 44
2010-03-23 08:47:19 51°14.076 2°55.457 2.5 340 6.5 102030 43
2010-03-23 08:47:24 51°14.088 2°55.448 2.7 285 6.5 102030 43
2010-03-23 08:47:29 51°14.1 2°55.44 2.7 338 6.5 102030 46
2010-03-23 08:47:34 51°14.112 2°55.431 2.7 283 6.5 102030 46
2010-03-23 08:47:38 51°14.121 2°55.424 2.6 335 6.5 102040 44
2010-03-23 08:47:44 51°14.135 2°55.413 3.2 283 6.5 102040 44
2010-03-23 08:47:49 51°14.147 2°55.403 3.1 337 6.5 102040 46
2010-03-23 08:47:54 51°14.159 2°55.393 2.7 285 6.5 102040 46
2010-03-23 08:47:58 51°14.168 2°55.386 2.5 336 6.5 102040 43
2010-03-23 08:48:04 51°14.183 2°55.373 3.1 280 6.5 102040 43
2010-03-23 08:48:09 51°14.195 2°55.362 2.8 336 6.5 102040 43
2010-03-23 08:48:14 51°14.207 2°55.352 2.8 282 6.5 102040 43
2010-03-23 08:48:18 51°14.216 2°55.342 2.8 335 6.5 102030 43
2010-03-23 08:48:24 51°14.23 2°55.328 2.7 280 6.5 102030 43
2010-03-23 08:48:29 51°14.242 2°55.315 3 335 6.5 102030 43
2010-03-23 08:48:34 51°14.254 2°55.303 2.5 285 6.5 102030 43
2010-03-23 08:48:38 51°14.264 2°55.294 3.4 339 6.5 102030 46
2010-03-23 08:48:44 51°14.278 2°55.279 3.6 286 6.5 102030 46
2010-03-23 08:48:49 51°14.29 2°55.266 3.3 338 6.5 102040 46
2010-03-23 08:48:54 51°14.302 2°55.254 3 285 6.5 102040 46
2010-03-23 08:48:58 51°14.312 2°55.243 3.4 335 6.5 102040 43
2010-03-23 08:49:04 51°14.326 2°55.228 3.3 285 6.5 102040 43
2010-03-23 08:49:09 51°14.338 2°55.215 3.1 334 6.5 102040 45
2010-03-23 08:49:14 51°14.35 2°55.202 3.3 285 6.5 102040 45
2010-03-23 08:49:19 51°14.363 2°55.189 2.9 337 6.5 102040 46
2010-03-23 08:49:24 51°14.375 2°55.176 3.4 280 6.5 102040 46
2010-03-23 08:49:29 51°14.388 2°55.163 3.2 335 6.5 102030 43
2010-03-23 08:49:34 51°14.4 2°55.15 3.5 283 6.5 102030 43
2010-03-23 08:49:38 51°14.41 2°55.139 3.8 336 6.6 102040 44
2010-03-23 08:49:44 51°14.425 2°55.123 3.5 280 6.6 102040 44
2010-03-23 08:49:49 51°14.437 2°55.11 3.7 338 6.6 102030 43
2010-03-23 08:49:54 51°14.45 2°55.097 3.8 279 6.6 102030 43
2010-03-23 08:49:58 51°14.46 2°55.087 3.8 338 6.5 102030 44
2010-03-23 08:50:04 51°14.475 2°55.07 4.1 279 6.5 102030 44
2010-03-23 08:50:09 51°14.488 2°55.057 4.3 337 6.6 102030 46
2010-03-23 08:50:14 51°14.501 2°55.044 3.6 280 6.6 102030 46
2010-03-23 08:50:18 51°14.511 2°55.033 3.8 338 6.6 102030 43
2010-03-23 08:50:24 51°14.526 2°55.016 3.7 285 6.6 102030 43
2010-03-23 08:50:29 51°14.539 2°55.001 4 337 6.6 102030 46
2010-03-23 08:50:34 51°14.552 2°54.987 3.5 284 6.6 102030 46
2010-03-23 08:50:38 51°14.562 2°54.975 3.9 334 6.5 102030 46
2010-03-23 08:50:44 51°14.577 2°54.956 3.7 279 6.5 102030 46
2010-03-23 08:50:49 51°14.589 2°54.939 3.2 333 6.6 102030 44
2010-03-23 08:50:54 51°14.602 2°54.922 3.8 285 6.6 102030 44
2010-03-23 08:50:59 51°14.614 2°54.905 3.4 335 6.5 102030 44
2010-03-23 08:51:04 51°14.626 2°54.887 3.4 281 6.5 102030 44
2010-03-23 08:51:09 51°14.638 2°54.87 3.2 334 6.6 102030 44
2010-03-23 08:51:14 51°14.651 2°54.852 3.9 282 6.6 102030 44
2010-03-23 08:51:18 51°14.662 2°54.839 3.9 335 6.5 102040 44
2010-03-23 08:51:24 51°14.677 2°54.818 3.6 286 6.5 102040 44
2010-03-23 08:51:29 51°14.69 2°54.8 3.9 333 6.5 102030 44
2010-03-23 08:51:34 51°14.701 2°54.78 3.4 281 6.5 102030 44
2010-03-23 08:51:39 51°14.712 2°54.757 3.5 331 6.5 102030 45
2010-03-23 08:51:44 51°14.721 2°54.734 3.7 285 6.5 102030 45
2010-03-23 08:51:49 51°14.73 2°54.71 3.3 329 6.5 102030 44
2010-03-23 08:51:54 51°14.738 2°54.685 3.5 278 6.5 102030 44
2010-03-23 08:51:58 51°14.743 2°54.664 3.5 328 6.5 102030 46
2010-03-23 08:52:04 51°14.749 2°54.632 3.2 287 6.5 102030 46
2010-03-23 08:52:09 51°14.752 2°54.604 4 326 6.5 102040 44
2010-03-23 08:52:14 51°14.754 2°54.576 4.1 279 6.5 102040 44
2010-03-23 08:52:18 51°14.753 2°54.554 4.2 323 6.5 102030 44
2010-03-23 08:52:24 51°14.751 2°54.521 4.2 279 6.5 102030 44
2010-03-23 08:52:29 51°14.748 2°54.494 4.5 323 6.5 102030 44
2010-03-23 08:52:34 51°14.744 2°54.466 4.2 278 6.5 102030 44
2010-03-23 08:52:38 51°14.741 2°54.444 4.4 322 6.5 102030 42
2010-03-23 08:52:44 51°14.736 2°54.41 4.3 280 6.5 102030 42
2010-03-23 08:52:49 51°14.731 2°54.383 4.6 321 6.5 102030 44
2010-03-23 08:52:54 51°14.724 2°54.357 4.8 286 6.5 102030 44
2010-03-23 08:52:58 51°14.718 2°54.338 4.8 321 6.5 102030 43
2010-03-23 08:53:04 51°14.705 2°54.311 4.7 285 6.5 102030 43
2010-03-23 08:53:09 51°14.694 2°54.291 4.9 322 6.5 102030 44
2010-03-23 08:53:14 51°14.681 2°54.274 5.6 280 6.5 102030 44
2010-03-23 08:53:18 51°14.67 2°54.261 5.6 321 6.5 102030 44
2010-03-23 08:53:24 51°14.654 2°54.24 5.3 284 6.5 102030 44
2010-03-23 08:53:29 51°14.639 2°54.225 6 322 6.5 102030 46
2010-03-23 08:53:34 51°14.624 2°54.21 5.4 279 6.5 102030 46
2010-03-23 08:53:39 51°14.609 2°54.194 5.7 323 6.5 102030 46
2010-03-23 08:53:44 51°14.594 2°54.176 5.4 279 6.5 102030 46
2010-03-23 08:53:49 51°14.58 2°54.157 5.9 323 6.5 102030 43
2010-03-23 08:53:54 51°14.566 2°54.137 5.6 286 6.5 102030 43
2010-03-23 08:53:59 51°14.552 2°54.116 6 321 6.5 102030 45
2010-03-23 08:54:04 51°14.538 2°54.094 5.8 284 6.5 102030 45
2010-03-23 08:54:09 51°14.524 2°54.072 5.7 323 6.5 102030 46
2010-03-23 08:54:14 51°14.51 2°54.052 5.6 278 6.5 102030 46
2010-03-23 08:54:18 51°14.499 2°54.035 5.4 323 6.5 102030 43
2010-03-23 08:54:24 51°14.481 2°54.009 5.4 284 6.5 102030 43
2010-03-23 08:54:29 51°14.467 2°53.988 5.5 323 6.5 102030 46
2010-03-23 08:54:34 51°14.452 2°53.967 6 281 6.5 102030 46
2010-03-23 08:54:39 51°14.437 2°53.947 6.1 323 6.5 102030 43
2010-03-23 08:54:44 51°14.423 2°53.925 5.7 284 6.5 102030 43
2010-03-23 08:54:49 51°14.408 2°53.904 5.7 324 6.5 102030 44
2010-03-23 08:54:54 51°14.394 2°53.881 5.9 283 6.5 102030 44
2010-03-23 08:54:58 51°14.383 2°53.863 6.1 323 6.5 102030 44
2010-03-23 08:55:04 51°14.366 2°53.836 5.3 286 6.5 102030 44
2010-03-23 08:55:09 51°14.353 2°53.812 5.5 324 6.5 102030 43
2010-03-23 08:55:14 51°14.339 2°53.789 5.9 284 6.5 102030 43
2010-03-23 08:55:18 51°14.329 2°53.769 5.9 324 6.5 102030 45
2010-03-23 08:55:24 51°14.313 2°53.741 5.8 284 6.5 102030 45
2010-03-23 08:55:29 51°14.3 2°53.716 5.6 326 6.5 102030 45
2010-03-23 08:55:34 51°14.287 2°53.692 5.5 280 6.5 102030 45
2010-03-23 08:55:38 51°14.277 2°53.671 5.8 325 6.5 102030 43
2010-03-23 08:55:44 51°14.262 2°53.642 5.7 278 6.5 102030 43
2010-03-23 08:55:49 51°14.25 2°53.616 5.8 327 6.5 102030 44
2010-03-23 08:55:54 51°14.238 2°53.591 5.1 284 6.5 102030 44
2010-03-23 08:55:58 51°14.228 2°53.571 5.2 328 6.5 102030 46
2010-03-23 08:56:04 51°14.214 2°53.539 5.7 281 6.5 102030 46
2010-03-23 08:56:09 51°14.202 2°53.513 5.8 329 6.5 102030 46
2010-03-23 08:56:14 51°14.19 2°53.487 5.2 279 6.5 102030 46
2010-03-23 08:56:18 51°14.181 2°53.466 5.3 327 6.5 102030 43
2010-03-23 08:56:24 51°14.167 2°53.435 5.5 285 6.5 102030 43
2010-03-23 08:56:29 51°14.155 2°53.409 5.3 326 6.4 102030 45
2010-03-23 08:56:34 51°14.142 2°53.384 5.4 279 6.4 102030 45
2010-03-23 08:56:38 51°14.133 2°53.363 4.9 328 6.5 102030 43
2010-03-23 08:56:44 51°14.119 2°53.332 5 282 6.5 102030 43
2010-03-23 08:56:49 51°14.107 2°53.306 5.6 329 6.4 102030 45
2010-03-23 08:56:54 51°14.095 2°53.28 5.2 284 6.4 102030 45
2010-03-23 08:56:58 51°14.085 2°53.259 5.3 328 6.5 102030 43
2010-03-23 08:57:04 51°14.07 2°53.229 5.4 285 6.5 102030 43
2010-03-23 08:57:09 51°14.057 2°53.204 6 329 6.4 102030 44
2010-03-23 08:57:14 51°14.044 2°53.18 5.8 285 6.4 102030 44
2010-03-23 08:57:18 51°14.033 2°53.161 5.7 329 6.4 102030 43
2010-03-23 08:57:24 51°14.017 2°53.132 5.9 280 6.4 102030 43
2010-03-23 08:57:29 51°14.004 2°53.108 5.4 328 6.4 102030 44
2010-03-23 08:57:34 51°13.99 2°53.085 5.3 281 6.4 102030 44
2010-03-23 08:57:38 51°13.979 2°53.066 6.4 329 6.4 102030 43
2010-03-23 08:57:44 51°13.962 2°53.037 5.9 284 6.4 102030 43
2010-03-23 08:57:49 51°13.949 2°53.014 6.3 330 6.4 102030 46
2010-03-23 08:57:54 51°13.935 2°52.991 6.1 282 6.4 102030 46
2010-03-23 08:57:58 51°13.924 2°52.972 6.7 330 6.4 102030 43
2010-03-23 08:58:04 51°13.907 2°52.944 6.6 285 6.4 102030 43
2010-03-23 08:58:09 51°13.893 2°52.921 6.6 330 6.4 102030 43
2010-03-23 08:58:14 51°13.88 2°52.897 6.4 286 6.4 102030 43
2010-03-23 08:58:18 51°13.869 2°52.879 6.7 328 6.4 102030 44
2010-03-23 08:58:24 51°13.853 2°52.85 5.9 284 6.4 102030 44
2010-03-23 08:58:29 51°13.84 2°52.825 5.9 328 6.4 102030 45
2010-03-23 08:58:34 51°13.827 2°52.801 6.6 286 6.4 102030 45
2010-03-23 08:58:39 51°13.816 2°52.774 6.5 328 6.4 102030 46
2010-03-23 08:58:44 51°13.804 2°52.749 6 281 6.4 102030 46
2010-03-23 08:58:49 51°13.794 2°52.721 6.2 329 6.4 102030 43
2010-03-23 08:58:54 51°13.782 2°52.695 5.8 280 6.4 102030 43
2010-03-23 08:58:58 51°13.774 2°52.673 6.4 331 6.4 102030 43
2010-03-23 08:59:04 51°13.762 2°52.64 6.2 284 6.4 102030 43
2010-03-23 08:59:09 51°13.751 2°52.613 6.1 332 6.4 102030 45
2010-03-23 08:59:14 51°13.742 2°52.584 6.4 284 6.4 102030 45
2010-03-23 08:59:18 51°13.734 2°52.562 5.8 331 6.4 102030 44
2010-03-23 08:59:24 51°13.723 2°52.528 5.9 285 6.4 102030 44
2010-03-23 08:59:29 51°13.714 2°52.5 5.6 332 6.4 102030 44
2010-03-23 08:59:34 51°13.704 2°52.471 5.6 281 6.4 102030 44
2010-03-23 08:59:38 51°13.696 2°52.449 5.7 329 6.4 102030 44
2010-03-23 08:59:44 51°13.686 2°52.414 6 284 6.4 102030 44
2010-03-23 08:59:49 51°13.676 2°52.386 5.7 329 6.4 102030 44
2010-03-23 08:59:54 51°13.667 2°52.357 5.6 280 6.4 102030 44
2010-03-23 08:59:58 51°13.659 2°52.335 6.4 328 6.4 102020 44
2010-03-23 09:00:04 51°13.648 2°52.301 6.1 284 6.4 102020 44
2010-03-23 09:00:09 51°13.638 2°52.272 6 328 6.5 102030 46
2010-03-23 09:00:14 51°13.629 2°52.244 6.2 284 6.5 102030 46
2010-03-23 09:00:18 51°13.621 2°52.221 6.1 329 6.5 102030 45
2010-03-23 09:00:24 51°13.609 2°52.188 6.5 281 6.5 102030 45
2010-03-23 09:00:29 51°13.599 2°52.16 6.7 330 6.5 102030 44
2010-03-23 09:00:34 51°13.59 2°52.132 6.4 285 6.5 102030 44
2010-03-23 09:00:38 51°13.581 2°52.11 5.8 329 6.4 102030 45
2010-03-23 09:00:44 51°13.569 2°52.077 6.4 280 6.4 102030 45
2010-03-23 09:00:49 51°13.559 2°52.049 5.9 328 6.5 102030 43
2010-03-23 09:00:54 51°13.549 2°52.022 6.2 278 6.5 102030 43
2010-03-23 09:00:58 51°13.541 2°51.999 5.6 329 6.5 102030 44
2010-03-23 09:01:04 51°13.529 2°51.966 5.6 280 6.5 102030 44
2010-03-23 09:01:09 51°13.518 2°51.939 5.6 329 6.5 102030 43
2010-03-23 09:01:14 51°13.508 2°51.911 5.4 285 6.5 102030 43
2010-03-23 09:01:19 51°13.498 2°51.884 5.5 328 6.5 102030 43
2010-03-23 09:01:24 51°13.488 2°51.856 6.1 280 6.5 102030 43
2010-03-23 09:01:29 51°13.478 2°51.828 5.2 329 6.4 102030 43
2010-03-23 09:01:34 51°13.468 2°51.801 6 286 6.4 102030 43
2010-03-23 09:01:38 51°13.46 2°51.778 5.7 328 6.5 102030 46
2010-03-23 09:01:44 51°13.448 2°51.745 5.9 285 6.5 102030 46
2010-03-23 09:01:49 51°13.437 2°51.718 5.9 327 6.5 102030 44
2010-03-23 09:01:54 51°13.427 2°51.69 5.8 285 6.5 102030 44
2010-03-23 09:01:58 51°13.419 2°51.668 5.8 329 6.5 102030 44
2010-03-23 09:02:04 51°13.407 2°51.635 5.8 278 6.5 102030 44
2010-03-23 09:02:09 51°13.396 2°51.608 5.9 329 6.5 102030 43
2010-03-23 09:02:14 51°13.386 2°51.58 5.7 284 6.5 102030 43
2010-03-23 09:02:18 51°13.378 2°51.558 5.4 329 6.5 102030 46
2010-03-23 09:02:24 51°13.365 2°51.525 5.4 283 6.5 102030 46
2010-03-23 09:02:29 51°13.355 2°51.498 5.3 328 6.4 102030 46
2010-03-23 09:02:34 51°13.345 2°51.47 4.7 278 6.4 102030 46
2010-03-23 09:02:38 51°13.337 2°51.448 4.8 328 6.4 102030 44
2010-03-23 09:02:44 51°13.324 2°51.415 5.1 285 6.4 102030 44
2010-03-23 09:02:49 51°13.314 2°51.387 5.2 329 6.5 102030 45
2010-03-23 09:02:54 51°13.304 2°51.36 5.2 279 6.5 102030 45
2010-03-23 09:02:59 51°13.293 2°51.332 5 329 6.5 102030 43
2010-03-23 09:03:04 51°13.283 2°51.304 5.4 285 6.5 102030 43
2010-03-23 09:03:09 51°13.273 2°51.277 4.6 329 6.5 102030 43
2010-03-23 09:03:14 51°13.263 2°51.251 4.3 286 6.5 102030 43
2010-03-23 09:03:18 51°13.255 2°51.23 4.2 329 6.5 102030 42
2010-03-23 09:03:24 51°13.244 2°51.199 4.4 283 6.5 102030 42
2010-03-23 09:03:29 51°13.235 2°51.174 3.8 328 6.5 102030 44
2010-03-23 09:03:34 51°13.225 2°51.15 3.9 284 6.5 102030 44
2010-03-23 09:03:39 51°13.216 2°51.126 3.7 327 6.5 102030 44
2010-03-23 09:03:44 51°13.208 2°51.103 3.8 286 6.5 102030 44
2010-03-23 09:03:49 51°13.199 2°51.08 3.7 328 6.5 102030 45
2010-03-23 09:03:54 51°13.19 2°51.057 3.6 283 6.5 102030 45
2010-03-23 09:03:58 51°13.184 2°51.039 3.3 328 6.5 102030 46
2010-03-23 09:04:04 51°13.174 2°51.013 3.2 280 6.5 102030 46
2010-03-23 09:04:09 51°13.165 2°50.991 3.5 327 6.5 102030 43
2010-03-23 09:04:14 51°13.157 2°50.969 3.2 283 6.5 102030 43
2010-03-23 09:04:18 51°13.151 2°50.952 3.2 325 6.4 102030 46
2010-03-23 09:04:24 51°13.141 2°50.926 3.4 286 6.4 102030 46
2010-03-23 09:04:29 51°13.133 2°50.904 3.4 326 6.5 102030 46
2010-03-23 09:04:34 51°13.125 2°50.882 3.1 287 6.5 102030 46
2010-03-23 09:04:38 51°13.118 2°50.865 3.2 327 6.5 102030 45
2010-03-23 09:04:44 51°13.109 2°50.839 3.2 285 6.5 102030 45
2010-03-23 09:04:49 51°13.101 2°50.817 2.9 327 6.5 102030 43
2010-03-23 09:04:54 51°13.092 2°50.796 3.1 281 6.5 102030 43
2010-03-23 09:04:59 51°13.084 2°50.774 3.1 326 6.5 102030 44
2010-03-23 09:05:04 51°13.076 2°50.752 3.5 285 6.5 102030 44
2010-03-23 09:05:09 51°13.068 2°50.73 3.3 325 6.5 102030 46
2010-03-23 09:05:14 51°13.06 2°50.708 3.4 280 6.5 102030 46
2010-03-23 09:05:18 51°13.053 2°50.691 3.6 326 6.5 102030 43
2010-03-23 09:05:24 51°13.044 2°50.665 3.2 278 6.5 102030 43
2010-03-23 09:05:29 51°13.035 2°50.643 3.3 326 6.5 102030 43
2010-03-23 09:05:34 51°13.027 2°50.621 2.5 286 6.5 102030 43
2010-03-23 09:05:39 51°13.019 2°50.599 3 327 6.5 102030 44
2010-03-23 09:05:44 51°13.011 2°50.577 3.2 283 6.5 102030 44
2010-03-23 09:05:49 51°13.003 2°50.556 3 327 6.5 102030 43
2010-03-23 09:05:54 51°12.994 2°50.534 3.3 283 6.5 102030 43
2010-03-23 09:05:58 51°12.988 2°50.516 3 326 6.5 102040 45
2010-03-23 09:06:04 51°12.978 2°50.49 3.5 279 6.5 102040 45
2010-03-23 09:06:09 51°12.97 2°50.468 3.5 325 6.5 102030 43
2010-03-23 09:06:14 51°12.961 2°50.446 3.5 284 6.5 102030 43
2010-03-23 09:06:18 51°12.955 2°50.428 3.3 327 6.5 102030 43
2010-03-23 09:06:24 51°12.945 2°50.401 3.4 283 6.5 102030 43
2010-03-23 09:06:29 51°12.936 2°50.379 3.7 326 6.5 102030 42
2010-03-23 09:06:34 51°12.928 2°50.356 3.6 280 6.5 102030 42
2010-03-23 09:06:38 51°12.921 2°50.338 3.5 329 6.5 102030 43
2010-03-23 09:06:44 51°12.912 2°50.311 3.5 287 6.5 102030 43
2010-03-23 09:06:49 51°12.903 2°50.289 3.6 328 6.5 102030 46
2010-03-23 09:06:54 51°12.895 2°50.266 3.9 285 6.5 102030 46
2010-03-23 09:06:58 51°12.888 2°50.248 3.3 327 6.5 102030 45
2010-03-23 09:07:04 51°12.878 2°50.22 3.9 284 6.5 102030 45
2010-03-23 09:07:09 51°12.869 2°50.198 3.5 328 6.5 102030 46
2010-03-23 09:07:14 51°12.861 2°50.175 3.7 286 6.5 102030 46
2010-03-23 09:07:19 51°12.852 2°50.153 3.8 327 6.5 102030 46
2010-03-23 09:07:24 51°12.844 2°50.13 3.8 280 6.5 102030 46
2010-03-23 09:07:29 51°12.836 2°50.107 3.5 328 6.5 102030 46
2010-03-23 09:07:34 51°12.827 2°50.084 3.3 284 6.5 102030 46
2010-03-23 09:07:38 51°12.821 2°50.066 3.5 329 6.5 102030 46
2010-03-23 09:07:44 51°12.81 2°50.039 3.2 283 6.5 102030 46
2010-03-23 09:07:49 51°12.803 2°50.017 3.5 328 6.5 102030 44
2010-03-23 09:07:54 51°12.795 2°49.995 3.6 280 6.5 102030 44
2010-03-23 09:07:58 51°12.787 2°49.977 3.3 329 6.5 102030 44
2010-03-23 09:08:04 51°12.776 2°49.949 3.2 285 6.5 102030 44
2010-03-23 09:08:09 51°12.768 2°49.926 3.3 330 6.5 102030 43
2010-03-23 09:08:14 51°12.759 2°49.903 3.6 285 6.5 102030 43
2010-03-23 09:08:18 51°12.753 2°49.884 3.3 329 6.5 102030 43
2010-03-23 09:08:24 51°12.742 2°49.857 3.2 280 6.5 102030 43
2010-03-23 09:08:29 51°12.734 2°49.835 3.3 329 6.5 102030 46
2010-03-23 09:08:34 51°12.726 2°49.812 3.4 278 6.5 102030 46
2010-03-23 09:08:38 51°12.719 2°49.794 3.3 328 6.5 102030 42
2010-03-23 09:08:44 51°12.708 2°49.766 3.1 283 6.5 102030 42
2010-03-23 09:08:49 51°12.7 2°49.744 3.8 331 6.5 102030 43
2010-03-23 09:08:54 51°12.691 2°49.721 3.5 285 6.5 102030 43
2010-03-23 09:08:58 51°12.684 2°49.703 3.4 328 6.5 102030 46
2010-03-23 09:09:04 51°12.674 2°49.676 3.5 281 6.5 102030 46
2010-03-23 09:09:09 51°12.665 2°49.653 3.6 327 6.5 102030 45
2010-03-23 09:09:14 51°12.657 2°49.631 3.6 284 6.5 102030 45
2010-03-23 09:09:19 51°12.648 2°49.608 3.6 328 6.5 102030 43
2010-03-23 09:09:24 51°12.64 2°49.585 2.9 287 6.5 102030 43
2010-03-23 09:09:29 51°12.631 2°49.563 3.4 328 6.5 102030 44
2010-03-23 09:09:34 51°12.622 2°49.54 3.3 285 6.5 102030 44
2010-03-23 09:09:38 51°12.616 2°49.521 3.2 328 6.5 102030 43
2010-03-23 09:09:44 51°12.606 2°49.494 3 277 6.5 102030 43
2010-03-23 09:09:49 51°12.597 2°49.472 2.9 329 6.5 102030 43
2010-03-23 09:09:54 51°12.589 2°49.449 3 281 6.5 102030 43
2010-03-23 09:09:59 51°12.58 2°49.426 3.5 327 6.5 102030 46
2010-03-23 09:10:04 51°12.572 2°49.403 2.9 280 6.5 102030 46
2010-03-23 09:10:09 51°12.563 2°49.38 2.8 328 6.5 102030 44
2010-03-23 09:10:14 51°12.555 2°49.358 3 285 6.5 102030 44
2010-03-23 09:10:18 51°12.548 2°49.339 3.2 328 6.5 102030 43
2010-03-23 09:10:24 51°12.538 2°49.312 3.2 281 6.5 102030 43
2010-03-23 09:10:29 51°12.53 2°49.289 2.9 328 6.5 102030 46
2010-03-23 09:10:34 51°12.522 2°49.265 3.2 284 6.5 102030 46
2010-03-23 09:10:38 51°12.515 2°49.247 3 328 6.5 102030 44
2010-03-23 09:10:44 51°12.506 2°49.218 3.2 287 6.5 102030 44
2010-03-23 09:10:49 51°12.498 2°49.195 3.7 328 6.5 102030 46
2010-03-23 09:10:54 51°12.49 2°49.172 3.2 279 6.5 102030 46
2010-03-23 09:10:58 51°12.484 2°49.153 3.5 328 6.5 102030 43
2010-03-23 09:11:04 51°12.475 2°49.125 3.4 287 6.5 102030 43
2010-03-23 09:11:09 51°12.467 2°49.101 3.7 329 6.5 102030 43
2010-03-23 09:11:14 51°12.459 2°49.077 3.8 286 6.5 102030 43
2010-03-23 09:11:18 51°12.453 2°49.059 3.6 329 6.5 102030 44
2010-03-23 09:11:24 51°12.444 2°49.03 3.6 284 6.5 102030 44
2010-03-23 09:11:29 51°12.436 2°49.007 3.7 330 6.5 102020 44
2010-03-23 09:11:34 51°12.429 2°48.983 3.4 278 6.5 102020 44
2010-03-23 09:11:38 51°12.423 2°48.964 3.9 329 6.5 102030 43
2010-03-23 09:11:44 51°12.414 2°48.935 3.7 283 6.5 102030 43
2010-03-23 09:11:49 51°12.407 2°48.911 3.1 330 6.5 102030 43
2010-03-23 09:11:54 51°12.4 2°48.886 3.1 285 6.5 102030 43
2010-03-23 09:11:58 51°12.395 2°48.867 3.4 331 6.5 102030 46
2010-03-23 09:12:04 51°12.387 2°48.837 3.5 281 6.5 102030 46
2010-03-23 09:12:09 51°12.381 2°48.813 3.2 330 6.5 102030 45
2010-03-23 09:12:14 51°12.374 2°48.788 2.9 282 6.5 102030 45
2010-03-23 09:12:18 51°12.369 2°48.768 2.9 328 6.5 102020 44
2010-03-23 09:12:24 51°12.362 2°48.739 2.9 283 6.5 102020 44
2010-03-23 09:12:29 51°12.356 2°48.714 3.2 328 6.5 102020 43
2010-03-23 09:12:34 51°12.349 2°48.689 2.8 284 6.5 102020 43
2010-03-23 09:12:38 51°12.344 2°48.669 3.3 328 6.5 102030 46
2010-03-23 09:12:44 51°12.337 2°48.64 3.2 281 6.5 102030 46
2010-03-23 09:12:49 51°12.33 2°48.615 3.4 331 6.5 102020 45
2010-03-23 09:12:54 51°12.324 2°48.59 3.3 278 6.5 102020 45
2010-03-23 09:12:58 51°12.319 2°48.57 3.7 330 6.6 102020 44
2010-03-23 09:13:04 51°12.312 2°48.541 3.6 284 6.6 102020 44
2010-03-23 09:13:09 51°12.305 2°48.516 3.5 333 6.6 102020 46
2010-03-23 09:13:14 51°12.299 2°48.491 3.5 285 6.6 102020 46
2010-03-23 09:13:18 51°12.294 2°48.471 4.3 333 6.6 102030 44
2010-03-23 09:13:24 51°12.286 2°48.442 4.4 284 6.6 102030 44
2010-03-23 09:13:29 51°12.28 2°48.417 4.4 334 6.6 102020 46
2010-03-23 09:13:34 51°12.274 2°48.392 4.3 281 6.6 102020 46
2010-03-23 09:13:39 51°12.268 2°48.368 3.9 333 6.6 102020 46
2010-03-23 09:13:44 51°12.261 2°48.343 4 286 6.6 102020 46
2010-03-23 09:13:49 51°12.255 2°48.318 4 333 6.6 102020 45
2010-03-23 09:13:54 51°12.249 2°48.293 3.7 279 6.6 102020 45
2010-03-23 09:13:58 51°12.243 2°48.274 3.7 334 6.6 102030 44
2010-03-23 09:14:04 51°12.235 2°48.245 3.6 279 6.6 102030 44
2010-03-23 09:14:09 51°12.228 2°48.22 4 333 6.6 102030 43
2010-03-23 09:14:14 51°12.222 2°48.195 3.4 279 6.6 102030 43
2010-03-23 09:14:18 51°12.217 2°48.176 3.8 334 6.5 102020 43
2010-03-23 09:14:24 51°12.21 2°48.145 3.7 282 6.5 102020 43
2010-03-23 09:14:29 51°12.204 2°48.12 3.7 333 6.5 102030 45
2010-03-23 09:14:34 51°12.198 2°48.096 3.7 284 6.5 102030 45
2010-03-23 09:14:38 51°12.193 2°48.076 3.6 334 6.6 102020 43
2010-03-23 09:14:44 51°12.185 2°48.046 3.4 279 6.6 102020 43
2010-03-23 09:14:49 51°12.18 2°48.021 3.9 334 6.5 102020 43
2010-03-23 09:14:54 51°12.173 2°47.996 3.4 284 6.5 102020 43
2010-03-23 09:14:58 51°12.168 2°47.976 3.3 334 6.5 102030 44
2010-03-23 09:15:04 51°12.161 2°47.947 3.3 285 6.5 102030 44
2010-03-23 09:15:09 51°12.154 2°47.922 3.6 335 6.5 102020 43
2010-03-23 09:15:14 51°12.148 2°47.897 3.3 281 6.5 102020 43
2010-03-23 09:15:18 51°12.143 2°47.877 3.3 335 6.5 102020 44
2010-03-23 09:15:24 51°12.136 2°47.847 3.6 285 6.5 102020 44
2010-03-23 09:15:29 51°12.13 2°47.822 3.2 335 6.5 102020 46
2010-03-23 09:15:34 51°12.123 2°47.798 3.5 285 6.5 102020 46
2010-03-23 09:15:38 51°12.118 2°47.778 3.2 334 6.5 102020 44
2010-03-23 09:15:44 51°12.111 2°47.748 3.6 279 6.5 102020 44
2010-03-23 09:15:49 51°12.105 2°47.723 3.5 335 6.5 102020 46
2010-03-23 09:15:54 51°12.098 2°47.698 3.4 285 6.5 102020 46
2010-03-23 09:15:59 51°12.092 2°47.674 3.2 334 6.5 102020 44
2010-03-23 09:16:04 51°12.086 2°47.649 3.2 285 6.5 102020 44
2010-03-23 09:16:09 51°12.079 2°47.624 3.2 333 6.5 102030 43
2010-03-23 09:16:14 51°12.073 2°47.599 3.1 280 6.5 102030 43
2010-03-23 09:16:19 51°12.067 2°47.574 2.8 333 6.5 102030 44
2010-03-23 09:16:24 51°12.06 2°47.549 3.2 285 6.5 102030 44
2010-03-23 09:16:29 51°12.054 2°47.523 3 332 6.5 102020 43
2010-03-23 09:16:34 51°12.047 2°47.498 3.1 281 6.5 102020 43
2010-03-23 09:16:38 51°12.042 2°47.477 2.8 333 6.5 102020 43
2010-03-23 09:16:44 51°12.034 2°47.447 3.1 285 6.5 102020 43
2010-03-23 09:16:49 51°12.028 2°47.421 3.4 334 6.6 102020 43
2010-03-23 09:16:54 51°12.021 2°47.396 3.2 283 6.6 102020 43
2010-03-23 09:16:58 51°12.016 2°47.376 3.4 334 6.5 102020 46
2010-03-23 09:17:04 51°12.009 2°47.345 3.3 285 6.5 102020 46
2010-03-23 09:17:09 51°12.002 2°47.319 3.3 335 6.6 102030 45
2010-03-23 09:17:14 51°11.996 2°47.294 3 282 6.6 102030 45
2010-03-23 09:17:18 51°11.991 2°47.273 2.7 335 6.6 102020 43
2010-03-23 09:17:23 51°11.984 2°47.248 2.9 285 6.6 102020 43
2010-03-23 09:17:29 51°11.976 2°47.217 3.2 335 6.6 102020 44
2010-03-23 09:17:33 51°11.972 2°47.196 3.6 285 6.6 102020 44
2010-03-23 09:17:38 51°11.965 2°47.171 3.5 335 6.6 102030 43
2010-03-23 09:17:43 51°11.959 2°47.145 3.6 283 6.6 102030 43
2010-03-23 09:17:49 51°11.951 2°47.115 3.1 335 6.6 102020 46
2010-03-23 09:17:54 51°11.944 2°47.089 3.4 285 6.6 102020 46
2010-03-23 09:17:58 51°11.939 2°47.069 3.3 335 6.6 102020 44
2010-03-23 09:18:04 51°11.931 2°47.038 3.6 283 6.6 102020 44
2010-03-23 09:18:09 51°11.925 2°47.012 2.9 335 6.6 102020 44
2010-03-23 09:18:14 51°11.919 2°46.987 2.9 285 6.6 102020 44
2010-03-23 09:18:18 51°11.913 2°46.966 2.9 335 6.6 102030 43
2010-03-23 09:18:24 51°11.906 2°46.935 2.8 285 6.6 102030 43
2010-03-23 09:18:28 51°11.901 2°46.915 2.4 335 6.6 102030 44
2010-03-23 09:18:34 51°11.893 2°46.884 2.8 284 6.6 102030 44
2010-03-23 09:18:38 51°11.888 2°46.864 2.5 336 6.6 102030 43
2010-03-23 09:18:43 51°11.881 2°46.838 2.7 286 6.6 102030 43
2010-03-23 09:18:49 51°11.874 2°46.808 2.4 335 6.6 102020 44
2010-03-23 09:18:53 51°11.868 2°46.787 2.3 284 6.6 102020 44
2010-03-23 09:18:58 51°11.862 2°46.762 2.6 334 6.6 102030 46
2010-03-23 09:19:03 51°11.855 2°46.736 2.4 280 6.6 102030 46
2010-03-23 09:19:09 51°11.847 2°46.705 2.2 335 6.6 102020 43
2010-03-23 09:19:13 51°11.842 2°46.685 2.4 281 6.6 102020 43
2010-03-23 09:19:18 51°11.836 2°46.659 2.3 335 6.6 102020 44
2010-03-23 09:19:24 51°11.828 2°46.629 2.3 283 6.6 102020 44
2010-03-23 09:19:29 51°11.821 2°46.603 2.5 335 6.6 102030 43
2010-03-23 09:19:34 51°11.815 2°46.578 2.6 278 6.6 102030 43
2010-03-23 09:19:38 51°11.809 2°46.557 2.4 336 6.6 102020 44
2010-03-23 09:19:44 51°11.802 2°46.526 2.7 287 6.6 102020 44
2010-03-23 09:19:49 51°11.795 2°46.501 1.2 336 6.6 102020 43
2010-03-23 09:19:54 51°11.789 2°46.475 2.5 280 6.6 102020 43
2010-03-23 09:19:58 51°11.784 2°46.454 2.6 335 6.6 102020 46
2010-03-23 09:20:03 51°11.777 2°46.428 2.3 285 6.6 102020 46
2010-03-23 09:20:09 51°11.769 2°46.398 2.2 334 6.6 102020 46
2010-03-23 09:20:13 51°11.764 2°46.377 2.4 285 6.6 102020 46
2010-03-23 09:20:18 51°11.757 2°46.352 2.5 334 6.6 102020 44
2010-03-23 09:20:23 51°11.751 2°46.326 2.5 283 6.6 102020 44
2010-03-23 09:20:28 51°11.744 2°46.301 2.3 334 6.6 102020 44
2010-03-23 09:20:34 51°11.737 2°46.27 2.4 285 6.6 102020 44
2010-03-23 09:20:38 51°11.731 2°46.25 2.6 333 6.6 102020 46
2010-03-23 09:20:43 51°11.725 2°46.224 2.4 286 6.6 102020 46
2010-03-23 09:20:49 51°11.717 2°46.194 2.6 333 6.6 102020 43
2010-03-23 09:20:54 51°11.711 2°46.168 2.5 280 6.6 102020 43
2010-03-23 09:20:58 51°11.706 2°46.148 2.8 332 6.6 102030 44
2010-03-23 09:21:04 51°11.698 2°46.117 2.6 278 6.6 102030 44
2010-03-23 09:21:09 51°11.692 2°46.092 2.7 332 6.6 102020 46
2010-03-23 09:21:14 51°11.685 2°46.066 3 282 6.6 102020 46
2010-03-23 09:21:18 51°11.68 2°46.046 3.2 331 6.6 102020 43
2010-03-23 09:21:24 51°11.672 2°46.015 2.7 278 6.6 102020 43
2010-03-23 09:21:29 51°11.666 2°45.99 2.6 332 6.6 102020 45
2010-03-23 09:21:33 51°11.661 2°45.969 2.5 280 6.6 102020 45
2010-03-23 09:21:38 51°11.654 2°45.944 2.5 332 6.6 102020 46
2010-03-23 09:21:44 51°11.647 2°45.913 2.7 285 6.6 102020 46
2010-03-23 09:21:49 51°11.64 2°45.888 3 332 6.6 102020 44
2010-03-23 09:21:53 51°11.635 2°45.867 3.2 284 6.6 102020 44
2010-03-23 09:21:58 51°11.629 2°45.842 2.7 332 6.6 102030 46
2010-03-23 09:22:03 51°11.622 2°45.816 2.6 284 6.6 102030 46
2010-03-23 09:22:09 51°11.615 2°45.786 2.7 332 6.6 102020 43
2010-03-23 09:22:13 51°11.61 2°45.765 2.7 278 6.6 102020 43
2010-03-23 09:22:18 51°11.603 2°45.739 2.5 331 6.6 102020 46
2010-03-23 09:22:23 51°11.597 2°45.714 2.6 286 6.6 102020 46
2010-03-23 09:22:28 51°11.59 2°45.688 2.5 332 6.6 102020 44
2010-03-23 09:22:34 51°11.583 2°45.658 2.7 284 6.6 102020 44
2010-03-23 09:22:38 51°11.577 2°45.637 3 333 6.6 102020 46
2010-03-23 09:22:43 51°11.571 2°45.612 2.4 279 6.6 102020 46
2010-03-23 09:22:48 51°11.565 2°45.586 2.7 331 6.6 102020 46
2010-03-23 09:22:53 51°11.558 2°45.561 2.6 287 6.6 102020 46
2010-03-23 09:22:58 51°11.551 2°45.535 2.9 331 6.6 102020 43
2010-03-23 09:23:03 51°11.545 2°45.51 2.2 278 6.6 102020 43
2010-03-23 09:23:09 51°11.537 2°45.479 2.6 332 6.6 102020 46
2010-03-23 09:23:14 51°11.53 2°45.454 2.6 283 6.6 102020 46
2010-03-23 09:23:18 51°11.525 2°45.433 2.9 331 6.6 102020 44
2010-03-23 09:23:24 51°11.517 2°45.402 2.8 285 6.6 102020 44
2010-03-23 09:23:29 51°11.511 2°45.377 2.6 332 6.6 102020 43
2010-03-23 09:23:33 51°11.506 2°45.356 3.2 280 6.6 102020 43
2010-03-23 09:23:38 51°11.499 2°45.33 2.4 332 6.6 102020 46
2010-03-23 09:23:44 51°11.491 2°45.3 2.6 284 6.6 102020 46
2010-03-23 09:23:48 51°11.486 2°45.279 2.5 333 6.6 102020 43
2010-03-23 09:23:53 51°11.48 2°45.253 2.8 286 6.6 102020 43
2010-03-23 09:23:58 51°11.474 2°45.228 2.2 333 6.5 102020 44
2010-03-23 09:24:04 51°11.466 2°45.197 2.2 285 6.5 102020 44
2010-03-23 09:24:09 51°11.459 2°45.171 2 335 6.5 102020 44
2010-03-23 09:24:13 51°11.454 2°45.151 2 284 6.5 102020 44
2010-03-23 09:24:18 51°11.448 2°45.125 2 334 6.5 102020 46
2010-03-23 09:24:23 51°11.441 2°45.1 2 285 6.5 102020 46
2010-03-23 09:24:29 51°11.433 2°45.069 2 332 6.5 102020 44
2010-03-23 09:24:33 51°11.428 2°45.048 2.1 286 6.5 102020 44
2010-03-23 09:24:38 51°11.422 2°45.023 3 334 6.5 102020 46
2010-03-23 09:24:44 51°11.414 2°44.992 2.8 283 6.5 102020 46
2010-03-23 09:24:49 51°11.407 2°44.966 2.8 330 6.5 102020 43
2010-03-23 09:24:54 51°11.401 2°44.94 2.1 285 6.5 102020 43
2010-03-23 09:24:58 51°11.396 2°44.92 2 337 6.5 102020 46
2010-03-23 09:25:03 51°11.39 2°44.894 1.8 281 6.5 102020 46
2010-03-23 09:25:08 51°11.383 2°44.868 2.2 338 6.5 102020 45
2010-03-23 09:25:13 51°11.377 2°44.843 1.6 283 6.5 102020 45
2010-03-23 09:25:18 51°11.371 2°44.817 2.4 332 6.5 102020 44
2010-03-23 09:25:24 51°11.363 2°44.786 2.4 279 6.5 102020 44
2010-03-23 09:25:28 51°11.358 2°44.766 3.1 329 6.5 102020 44
2010-03-23 09:25:33 51°11.351 2°44.74 3 280 6.5 102020 44
2010-03-23 09:25:38 51°11.345 2°44.714 2.8 331 6.5 102020 46
2010-03-23 09:25:44 51°11.337 2°44.684 2.5 285 6.5 102020 46
2010-03-23 09:25:48 51°11.332 2°44.663 3 328 6.5 102020 46
2010-03-23 09:25:53 51°11.326 2°44.637 2.6 286 6.5 102020 46
2010-03-23 09:25:58 51°11.319 2°44.612 2.7 331 6.5 102020 44
2010-03-23 09:26:04 51°11.312 2°44.581 3 280 6.5 102020 44
2010-03-23 09:26:09 51°11.305 2°44.556 2.7 326 6.5 102010 46
2010-03-23 09:26:13 51°11.3 2°44.535 3.2 285 6.5 102010 46
2010-03-23 09:26:18 51°11.294 2°44.51 3.3 329 6.5 102010 46
2010-03-23 09:26:24 51°11.286 2°44.479 3.1 285 6.5 102010 46
2010-03-23 09:26:28 51°11.281 2°44.458 2.9 327 6.5 102020 46
2010-03-23 09:26:33 51°11.275 2°44.432 3.5 285 6.5 102020 46
2010-03-23 09:26:38 51°11.268 2°44.407 3.1 327 6.5 102010 43
2010-03-23 09:26:44 51°11.261 2°44.376 3.1 284 6.5 102010 43
2010-03-23 09:26:49 51°11.254 2°44.351 2.7 330 6.6 102010 46
2010-03-23 09:26:53 51°11.249 2°44.33 2.4 286 6.6 102010 46
2010-03-23 09:26:58 51°11.242 2°44.305 3 327 6.6 102010 43
2010-03-23 09:27:03 51°11.236 2°44.279 3.2 285 6.6 102010 43
2010-03-23 09:27:09 51°11.228 2°44.248 3 327 6.6 102010 44
2010-03-23 09:27:13 51°11.223 2°44.228 3.1 283 6.6 102010 44
2010-03-23 09:27:18 51°11.217 2°44.202 3 326 6.6 102020 43
2010-03-23 09:27:23 51°11.211 2°44.177 3.6 284 6.6 102020 43
2010-03-23 09:27:28 51°11.204 2°44.151 3.3 326 6.6 102010 46
2010-03-23 09:27:34 51°11.197 2°44.12 3.1 286 6.6 102010 46
2010-03-23 09:27:38 51°11.191 2°44.1 2.9 328 6.6 102010 46
2010-03-23 09:27:44 51°11.184 2°44.069 2.8 287 6.6 102010 46
2010-03-23 09:27:48 51°11.179 2°44.049 3.6 330 6.6 102010 45
2010-03-23 09:27:53 51°11.172 2°44.023 3 280 6.6 102010 45
2010-03-23 09:27:58 51°11.166 2°43.997 3 326 6.6 102010 44
2010-03-23 09:28:03 51°11.16 2°43.971 3.2 281 6.6 102010 44
2010-03-23 09:28:09 51°11.152 2°43.941 2.6 329 6.6 102010 46
2010-03-23 09:28:13 51°11.147 2°43.92 2.7 -999 6.6 102010 46
2010-03-23 09:28:18 51°11.141 2°43.894 2.5 327 6.6 102010 43
2010-03-23 09:28:24 51°11.133 2°43.863 3.1 278 6.6 102010 43
2010-03-23 09:28:29 51°11.127 2°43.838 3.1 330 6.6 102010 46
2010-03-23 09:28:33 51°11.122 2°43.817 3 278 6.6 102010 46
2010-03-23 09:28:38 51°11.115 2°43.791 3.1 331 6.6 102010 46
2010-03-23 09:28:44 51°11.108 2°43.761 3 280 6.6 102010 46
2010-03-23 09:28:48 51°11.103 2°43.74 3.1 328 6.6 102010 44
2010-03-23 09:28:53 51°11.096 2°43.714 3.2 282 6.6 102010 44
2010-03-23 09:28:58 51°11.09 2°43.688 3.1 328 6.6 102010 43
2010-03-23 09:29:03 51°11.083 2°43.663 2.8 282 6.6 102010 43
2010-03-23 09:29:08 51°11.077 2°43.637 2.7 332 6.6 102010 44
2010-03-23 09:29:13 51°11.071 2°43.611 3 285 6.6 102010 44
2010-03-23 09:29:18 51°11.065 2°43.585 3 330 6.6 102010 46
2010-03-23 09:29:24 51°11.057 2°43.554 2 278 6.6 102010 46
2010-03-23 09:29:28 51°11.052 2°43.533 3.2 328 6.6 102010 46
2010-03-23 09:29:33 51°11.046 2°43.508 2.7 278 6.6 102010 46
2010-03-23 09:29:38 51°11.04 2°43.482 2.6 329 6.6 102010 44
2010-03-23 09:29:43 51°11.033 2°43.456 2.3 284 6.6 102010 44
2010-03-23 09:29:49 51°11.026 2°43.425 2.6 329 6.6 102010 44
2010-03-23 09:29:53 51°11.021 2°43.404 2.9 286 6.6 102010 44
2010-03-23 09:29:58 51°11.014 2°43.378 2.6 331 6.6 102010 44
2010-03-23 09:30:04 51°11.007 2°43.347 2.7 278 6.6 102010 44
2010-03-23 09:30:08 51°11.002 2°43.326 2.7 331 6.6 102010 46
2010-03-23 09:30:13 51°10.996 2°43.301 2.8 280 6.6 102010 46
2010-03-23 09:30:18 51°10.989 2°43.275 3.4 329 6.6 102010 44
2010-03-23 09:30:24 51°10.982 2°43.244 2.8 277 6.6 102010 44
2010-03-23 09:30:28 51°10.977 2°43.223 2.6 331 6.6 102010 42
2010-03-23 09:30:33 51°10.97 2°43.197 3.2 284 6.6 102010 42
2010-03-23 09:30:38 51°10.964 2°43.171 2.5 329 6.6 102010 43
2010-03-23 09:30:43 51°10.958 2°43.145 2.4 278 6.6 102010 43
2010-03-23 09:30:48 51°10.952 2°43.119 3.4 328 6.6 102010 45
2010-03-23 09:30:53 51°10.945 2°43.093 3.7 285 6.6 102010 45
2010-03-23 09:30:58 51°10.939 2°43.068 3.7 325 6.6 102010 44
2010-03-23 09:31:03 51°10.933 2°43.042 3.7 284 6.6 102010 44
2010-03-23 09:31:09 51°10.925 2°43.011 3.2 319 6.6 102010 44
2010-03-23 09:31:13 51°10.92 2°42.99 3.5 279 6.6 102010 44
2010-03-23 09:31:18 51°10.914 2°42.964 3.5 325 6.6 102010 43
2010-03-23 09:31:23 51°10.908 2°42.938 2.6 286 6.6 102010 43
2010-03-23 09:31:29 51°10.9 2°42.906 4.1 321 6.6 102010 44
2010-03-23 09:31:34 51°10.893 2°42.88 3.3 284 6.6 102010 44
2010-03-23 09:31:38 51°10.888 2°42.859 4.1 326 6.6 102000 46
2010-03-23 09:31:44 51°10.881 2°42.827 4.6 284 6.6 102000 46
2010-03-23 09:31:48 51°10.875 2°42.805 4.7 319 6.6 102010 43
2010-03-23 09:31:54 51°10.868 2°42.772 5 285 6.6 102010 43
2010-03-23 09:31:58 51°10.863 2°42.751 4.6 318 6.6 102010 46
2010-03-23 09:32:03 51°10.857 2°42.724 5.4 284 6.6 102010 46
2010-03-23 09:32:08 51°10.85 2°42.696 5.3 318 6.6 102010 44
2010-03-23 09:32:13 51°10.844 2°42.669 5.1 286 6.6 102010 44
2010-03-23 09:32:18 51°10.837 2°42.642 5.3 319 6.6 102000 44
2010-03-23 09:32:23 51°10.83 2°42.615 5.7 282 6.6 102000 44
2010-03-23 09:32:28 51°10.824 2°42.588 5.3 319 6.7 102000 44
2010-03-23 09:32:33 51°10.817 2°42.561 5.5 285 6.7 102000 44
2010-03-23 09:32:38 51°10.811 2°42.534 5.8 319 6.7 102000 44
2010-03-23 09:32:43 51°10.804 2°42.506 5.3 278 6.7 102000 44
2010-03-23 09:32:48 51°10.797 2°42.479 5.5 320 6.7 102000 46
2010-03-23 09:32:53 51°10.791 2°42.452 5.1 280 6.7 102000 46
2010-03-23 09:32:58 51°10.785 2°42.425 5.8 321 6.7 102000 45
2010-03-23 09:33:03 51°10.778 2°42.398 5.9 278 6.7 102000 45
2010-03-23 09:33:09 51°10.77 2°42.365 6.1 320 6.7 102000 45
2010-03-23 09:33:13 51°10.765 2°42.343 6 285 6.7 102000 45
2010-03-23 09:33:18 51°10.758 2°42.316 6 318 6.8 102000 46
2010-03-23 09:33:22 51°10.753 2°42.294 6 280 6.8 102000 46
2010-03-23 09:33:29 51°10.744 2°42.256 6.3 316 6.8 102000 46
2010-03-23 09:33:33 51°10.739 2°42.234 7 283 6.8 102000 46
2010-03-23 09:33:38 51°10.733 2°42.207 7 317 6.8 102000 44
2010-03-23 09:33:43 51°10.726 2°42.18 5.8 280 6.8 102000 44
2010-03-23 09:33:48 51°10.719 2°42.153 5.8 316 6.8 102000 44
2010-03-23 09:33:53 51°10.713 2°42.126 5.4 278 6.8 102000 44
2010-03-23 09:33:58 51°10.706 2°42.099 5.9 316 6.8 102000 44
2010-03-23 09:34:04 51°10.698 2°42.066 5.3 279 6.8 102000 44
2010-03-23 09:34:08 51°10.693 2°42.044 5.8 315 6.8 101990 44
2010-03-23 09:34:14 51°10.686 2°42.012 6 -999 6.8 101990 44
2010-03-23 09:34:18 51°10.68 2°41.99 5.3 316 6.8 102000 44
2010-03-23 09:34:23 51°10.674 2°41.963 5.5 287 6.8 102000 44
2010-03-23 09:34:28 51°10.667 2°41.935 6 315 6.8 101990 44
2010-03-23 09:34:33 51°10.661 2°41.907 5.7 282 6.8 101990 44
2010-03-23 09:34:38 51°10.655 2°41.879 5.4 316 6.8 102000 45
2010-03-23 09:34:44 51°10.647 2°41.846 5.7 285 6.8 102000 45
2010-03-23 09:34:49 51°10.64 2°41.818 5.8 317 6.8 102000 45
2010-03-23 09:34:53 51°10.635 2°41.796 6.4 285 6.8 102000 45
2010-03-23 09:34:58 51°10.628 2°41.768 6.5 319 6.8 102000 46
2010-03-23 09:35:04 51°10.619 2°41.735 6.5 285 6.8 102000 46
2010-03-23 09:35:08 51°10.614 2°41.713 5.7 321 6.8 102000 45
2010-03-23 09:35:13 51°10.606 2°41.685 6.5 287 6.8 102000 45
2010-03-23 09:35:18 51°10.599 2°41.658 6.8 319 6.8 102000 45
2010-03-23 09:35:23 51°10.591 2°41.63 6.4 284 6.8 102000 45
2010-03-23 09:35:29 51°10.583 2°41.597 6.9 318 6.8 102000 46
2010-03-23 09:35:33 51°10.577 2°41.575 7.3 283 6.8 102000 46
2010-03-23 09:35:38 51°10.569 2°41.547 6.5 318 6.9 102000 46
2010-03-23 09:35:43 51°10.562 2°41.519 7.1 286 6.9 102000 46
2010-03-23 09:35:49 51°10.554 2°41.486 7.2 316 6.9 102000 43
2010-03-23 09:35:53 51°10.548 2°41.464 6.4 278 6.9 102000 43
2010-03-23 09:35:58 51°10.541 2°41.436 7.4 315 6.9 102000 46
2010-03-23 09:36:03 51°10.533 2°41.408 6.9 279 6.9 102000 46
2010-03-23 09:36:08 51°10.526 2°41.38 7 316 6.9 101990 46
2010-03-23 09:36:14 51°10.518 2°41.347 6.4 281 6.9 101990 46
2010-03-23 09:36:18 51°10.512 2°41.324 6.6 318 6.9 101990 46
2010-03-23 09:36:24 51°10.503 2°41.291 7.5 280 6.9 101990 46
2010-03-23 09:36:28 51°10.497 2°41.269 6.8 318 6.9 102000 45
2010-03-23 09:36:34 51°10.489 2°41.235 7.5 280 6.9 102000 45
2010-03-23 09:36:38 51°10.483 2°41.213 6.4 316 6.9 101990 44
2010-03-23 09:36:43 51°10.475 2°41.186 7.2 279 6.9 101990 44
2010-03-23 09:36:48 51°10.468 2°41.158 7 317 6.9 102000 44
2010-03-23 09:36:53 51°10.461 2°41.13 6.9 284 6.9 102000 44
2010-03-23 09:36:58 51°10.454 2°41.102 7.1 316 6.9 102000 44
2010-03-23 09:37:04 51°10.445 2°41.069 6.4 282 6.9 102000 44
2010-03-23 09:37:09 51°10.438 2°41.041 7.3 316 6.9 102000 45
2010-03-23 09:37:13 51°10.432 2°41.019 6.9 280 6.9 102000 45
2010-03-23 09:37:18 51°10.425 2°40.992 6.8 317 6.9 102000 46
2010-03-23 09:37:24 51°10.416 2°40.959 6.6 281 6.9 102000 46
2010-03-23 09:37:28 51°10.41 2°40.937 7.2 319 6.9 102000 44
2010-03-23 09:37:33 51°10.403 2°40.909 7.1 279 6.9 102000 44
2010-03-23 09:37:38 51°10.396 2°40.881 7.3 319 6.9 101990 46
2010-03-23 09:37:43 51°10.388 2°40.854 6.3 285 6.9 101990 46
2010-03-23 09:37:48 51°10.381 2°40.826 7 319 6.9 102000 46
2010-03-23 09:37:53 51°10.374 2°40.799 6.9 284 6.9 102000 46
2010-03-23 09:37:58 51°10.367 2°40.771 6.5 319 6.9 102000 44
2010-03-23 09:38:02 51°10.361 2°40.749 6.2 280 6.9 102000 44
2010-03-23 09:38:09 51°10.351 2°40.71 7 320 6.9 102000 44
2010-03-23 09:38:13 51°10.345 2°40.688 7.5 282 6.9 102000 44
2010-03-23 09:38:18 51°10.338 2°40.661 7.6 321 6.9 102000 45
2010-03-23 09:38:23 51°10.331 2°40.633 6.7 279 6.9 102000 45
2010-03-23 09:38:28 51°10.324 2°40.605 7.4 317 6.9 102000 43
2010-03-23 09:38:33 51°10.317 2°40.577 8 283 6.9 102000 43
2010-03-23 09:38:38 51°10.31 2°40.55 7.3 316 7 102000 46
2010-03-23 09:38:43 51°10.303 2°40.522 7.1 287 7 102000 46
2010-03-23 09:38:48 51°10.295 2°40.494 8.3 317 7 101990 44
2010-03-23 09:38:53 51°10.288 2°40.467 6.6 285 7 101990 44
2010-03-23 09:38:58 51°10.281 2°40.439 7 316 7 101990 46
2010-03-23 09:39:03 51°10.274 2°40.411 7.1 280 7 101990 46
2010-03-23 09:39:08 51°10.267 2°40.383 7.6 316 7 101990 44
2010-03-23 09:39:13 51°10.26 2°40.356 6.8 285 7 101990 44
2010-03-23 09:39:18 51°10.253 2°40.328 7.6 316 7 101990 46
2010-03-23 09:39:23 51°10.246 2°40.301 7.2 278 7 101990 46
2010-03-23 09:39:29 51°10.237 2°40.267 6.9 24 7 101990 46
2010-03-23 09:39:33 51°10.232 2°40.245 6.2 286 7 101990 46
2010-03-23 09:39:38 51°10.225 2°40.217 5.9 316 7 101980 44
2010-03-23 09:39:44 51°10.216 2°40.184 6.3 284 7 101980 44
2010-03-23 09:39:49 51°10.21 2°40.156 6 315 7 101990 44
2010-03-23 09:39:53 51°10.204 2°40.134 5.8 281 7 101990 44
2010-03-23 09:39:58 51°10.197 2°40.106 6.5 22 7 101990 46
2010-03-23 09:40:03 51°10.19 2°40.078 6.2 280 7 101990 46
2010-03-23 09:40:08 51°10.183 2°40.05 6.2 28 7 101990 46
2010-03-23 09:40:13 51°10.176 2°40.023 6.1 279 7 101990 46
2010-03-23 09:40:18 51°10.169 2°39.995 6.2 26 7 101990 44
2010-03-23 09:40:24 51°10.161 2°39.961 6.1 278 7 101990 44
2010-03-23 09:40:29 51°10.153 2°39.934 5.5 24 7 101990 46
2010-03-23 09:40:34 51°10.146 2°39.906 5.9 286 7 101990 46
2010-03-23 09:40:38 51°10.141 2°39.884 5.5 24 7 101990 46
2010-03-23 09:40:44 51°10.132 2°39.85 5.9 279 7 101990 46
2010-03-23 09:40:48 51°10.127 2°39.828 5.3 18 7 102000 46
2010-03-23 09:40:53 51°10.12 2°39.8 5.3 285 7 102000 46
2010-03-23 09:40:58 51°10.113 2°39.772 5.6 25 7 101990 44
2010-03-23 09:41:03 51°10.106 2°39.744 5.3 285 7 101990 44
2010-03-23 09:41:08 51°10.099 2°39.717 5.3 316 7 102000 43
2010-03-23 09:41:14 51°10.09 2°39.683 5.5 287 7 102000 43
2010-03-23 09:41:18 51°10.085 2°39.661 5.8 315 7 102000 44
2010-03-23 09:41:23 51°10.078 2°39.633 5.9 280 7 102000 44
2010-03-23 09:41:28 51°10.07 2°39.605 5.8 318 7.1 102000 46
2010-03-23 09:41:33 51°10.063 2°39.577 5.5 282 7.1 102000 46
2010-03-23 09:41:38 51°10.056 2°39.549 5.6 318 7.1 101990 45
2010-03-23 09:41:43 51°10.05 2°39.522 5.2 281 7.1 101990 45
2010-03-23 09:41:49 51°10.041 2°39.488 5.3 318 7.1 102000 46
2010-03-23 09:41:53 51°10.035 2°39.466 5.6 285 7.1 102000 46
2010-03-23 09:41:58 51°10.028 2°39.438 5.3 318 7.1 102000 46
2010-03-23 09:42:04 51°10.02 2°39.404 5.5 285 7.1 102000 46
2010-03-23 09:42:08 51°10.014 2°39.382 5.2 318 7.1 102000 47
2010-03-23 09:42:14 51°10.006 2°39.348 5.1 286 7.1 102000 47
2010-03-23 09:42:18 51°10 2°39.326 6 316 7.1 102000 46
2010-03-23 09:42:23 51°9.993 2°39.298 5.9 280 7.1 102000 46
2010-03-23 09:42:29 51°9.985 2°39.264 5.8 318 7.1 102000 46
2010-03-23 09:42:33 51°9.979 2°39.242 5.6 285 7.1 102000 46
2010-03-23 09:42:38 51°9.972 2°39.213 5.3 320 7.1 102000 45
2010-03-23 09:42:43 51°9.966 2°39.185 5.2 284 7.1 102000 45
2010-03-23 09:42:48 51°9.959 2°39.157 4.8 316 7.1 102000 44
2010-03-23 09:42:54 51°9.95 2°39.123 4.9 283 7.1 102000 44
2010-03-23 09:42:58 51°9.945 2°39.101 5.3 320 7.1 102000 44
2010-03-23 09:43:03 51°9.937 2°39.073 5.3 279 7.1 102000 44
2010-03-23 09:43:08 51°9.93 2°39.045 5.2 322 7.1 102000 46
2010-03-23 09:43:13 51°9.924 2°39.017 5 286 7.1 102000 46
2010-03-23 09:43:18 51°9.916 2°38.989 5.7 320 7.1 102000 46
2010-03-23 09:43:24 51°9.908 2°38.955 5.1 279 7.1 102000 46
2010-03-23 09:43:28 51°9.902 2°38.932 5.6 321 7.1 101990 44
2010-03-23 09:43:33 51°9.895 2°38.904 5.8 283 7.1 101990 44
2010-03-23 09:43:38 51°9.888 2°38.876 5.6 321 7.2 102000 46
2010-03-23 09:43:44 51°9.88 2°38.842 6.1 280 7.2 102000 46
2010-03-23 09:43:48 51°9.874 2°38.82 5.4 322 7.2 102000 43
2010-03-23 09:43:53 51°9.867 2°38.792 5.4 279 7.2 102000 43
2010-03-23 09:43:58 51°9.86 2°38.763 5.2 321 7.2 101990 44
2010-03-23 09:44:04 51°9.852 2°38.73 5.2 285 7.2 101990 44
2010-03-23 09:44:09 51°9.845 2°38.701 5.5 319 7.2 101990 47
2010-03-23 09:44:13 51°9.839 2°38.679 5.3 280 7.2 101990 47
2010-03-23 09:44:18 51°9.832 2°38.651 5.4 320 7.2 101990 45
2010-03-23 09:44:23 51°9.825 2°38.622 5.3 284 7.2 101990 45
2010-03-23 09:44:28 51°9.819 2°38.594 5.2 320 7.2 101990 45
2010-03-23 09:44:33 51°9.812 2°38.566 5.1 285 7.2 101990 45
2010-03-23 09:44:38 51°9.805 2°38.537 5.2 319 7.2 101990 44
2010-03-23 09:44:44 51°9.796 2°38.504 4.7 285 7.2 101990 44
2010-03-23 09:44:49 51°9.789 2°38.475 3.3 320 7.2 101990 46
2010-03-23 09:44:53 51°9.783 2°38.453 5 282 7.2 101990 46
2010-03-23 09:44:58 51°9.777 2°38.424 4.8 320 7.3 101990 44
2010-03-23 09:45:03 51°9.77 2°38.396 4.9 281 7.3 101990 44
2010-03-23 09:45:09 51°9.761 2°38.362 5.1 320 7.3 101990 44
2010-03-23 09:45:13 51°9.756 2°38.34 5 280 7.3 101990 44
2010-03-23 09:45:18 51°9.749 2°38.311 5.2 318 7.3 101990 44
2010-03-23 09:45:24 51°9.741 2°38.277 5.6 286 7.3 101990 44
2010-03-23 09:45:28 51°9.735 2°38.254 4.5 318 7.3 101990 44
2010-03-23 09:45:33 51°9.729 2°38.226 5.1 285 7.3 101990 44
2010-03-23 09:45:38 51°9.722 2°38.198 4.9 318 7.3 101990 44
2010-03-23 09:45:44 51°9.714 2°38.163 4.7 283 7.3 101990 44
2010-03-23 09:45:48 51°9.708 2°38.141 5 319 7.3 101990 47
2010-03-23 09:45:53 51°9.701 2°38.112 4.9 280 7.3 101990 47
2010-03-23 09:45:58 51°9.694 2°38.084 4.6 318 7.3 101990 44
2010-03-23 09:46:03 51°9.687 2°38.056 4.6 284 7.3 101990 44
2010-03-23 09:46:09 51°9.679 2°38.022 4.8 320 7.3 101990 46
2010-03-23 09:46:13 51°9.673 2°37.999 5 278 7.3 101990 46
2010-03-23 09:46:18 51°9.666 2°37.971 4.8 318 7.3 101990 47
2010-03-23 09:46:24 51°9.658 2°37.937 5.1 279 7.3 101990 47
2010-03-23 09:46:28 51°9.652 2°37.914 4.6 321 7.3 101990 46
2010-03-23 09:46:33 51°9.645 2°37.886 5.2 281 7.3 101990 46
2010-03-23 09:46:38 51°9.638 2°37.857 4.7 321 7.3 101990 44
2010-03-23 09:46:43 51°9.631 2°37.829 4.6 280 7.3 101990 44
2010-03-23 09:46:48 51°9.624 2°37.8 4.7 321 7.3 101990 44
2010-03-23 09:46:53 51°9.617 2°37.772 4.7 281 7.3 101990 44
2010-03-23 09:46:58 51°9.611 2°37.743 4.5 320 7.3 101990 44
2010-03-23 09:47:04 51°9.602 2°37.709 4.4 286 7.3 101990 44
2010-03-23 09:47:08 51°9.597 2°37.686 4.6 320 7.4 101990 44
2010-03-23 09:47:14 51°9.588 2°37.652 4.7 279 7.4 101990 44
2010-03-23 09:47:18 51°9.582 2°37.63 4.5 322 7.4 101990 44
2010-03-23 09:47:23 51°9.575 2°37.601 4.1 280 7.4 101990 44
2010-03-23 09:47:28 51°9.568 2°37.573 4.2 321 7.4 101990 47
2010-03-23 09:47:33 51°9.561 2°37.544 4.7 281 7.4 101990 47
2010-03-23 09:47:38 51°9.554 2°37.516 4.4 321 7.4 101990 47
2010-03-23 09:47:44 51°9.546 2°37.481 4.6 285 7.4 101990 47
2010-03-23 09:47:48 51°9.541 2°37.458 4.2 320 7.4 101990 44
2010-03-23 09:47:53 51°9.534 2°37.43 4.1 285 7.4 101990 44
2010-03-23 09:47:58 51°9.527 2°37.401 3.8 323 7.4 101990 44
2010-03-23 09:48:04 51°9.518 2°37.367 4 280 7.4 101990 44
2010-03-23 09:48:08 51°9.513 2°37.344 4.1 325 7.4 101990 45
2010-03-23 09:48:13 51°9.506 2°37.316 4.3 285 7.4 101990 45
2010-03-23 09:48:18 51°9.498 2°37.287 4.1 320 7.4 101990 47
2010-03-23 09:48:24 51°9.49 2°37.253 3.9 279 7.4 101990 47
2010-03-23 09:48:29 51°9.483 2°37.225 3.9 320 7.4 101990 44
2010-03-23 09:48:33 51°9.477 2°37.202 3.9 280 7.4 101990 44
2010-03-23 09:48:38 51°9.47 2°37.173 3.6 322 7.4 101980 47
2010-03-23 09:48:44 51°9.461 2°37.139 3.7 286 7.4 101980 47
2010-03-23 09:48:49 51°9.454 2°37.11 3.4 320 7.4 101990 47
2010-03-23 09:48:53 51°9.449 2°37.087 3.5 280 7.4 101990 47
2010-03-23 09:48:58 51°9.442 2°37.059 3.4 320 7.4 101990 44
2010-03-23 09:49:04 51°9.433 2°37.024 3.3 284 7.4 101990 44
2010-03-23 09:49:09 51°9.426 2°36.996 3.2 319 7.4 101990 44
2010-03-23 09:49:13 51°9.421 2°36.973 3.2 283 7.4 101990 44
2010-03-23 09:49:18 51°9.414 2°36.944 3.6 317 7.4 101990 44
2010-03-23 09:49:23 51°9.407 2°36.916 3.6 283 7.4 101990 44
2010-03-23 09:49:28 51°9.399 2°36.887 3.5 318 7.4 101990 47
2010-03-23 09:49:33 51°9.393 2°36.858 3.8 281 7.4 101990 47
2010-03-23 09:49:38 51°9.385 2°36.83 3.4 319 7.4 101990 47
2010-03-23 09:49:43 51°9.378 2°36.801 3.8 285 7.4 101990 47
2010-03-23 09:49:48 51°9.371 2°36.772 3.9 319 7.4 101990 46
2010-03-23 09:49:53 51°9.364 2°36.744 3.6 284 7.4 101990 46
2010-03-23 09:49:58 51°9.357 2°36.715 3.7 318 7.5 101990 47
2010-03-23 09:50:04 51°9.348 2°36.681 4.4 278 7.5 101990 47
2010-03-23 09:50:09 51°9.341 2°36.653 4.1 319 7.4 101990 46
2010-03-23 09:50:13 51°9.335 2°36.63 4.5 -999 7.4 101990 46
2010-03-23 09:50:18 51°9.328 2°36.601 4.5 316 7.5 101990 45
2010-03-23 09:50:24 51°9.319 2°36.567 4.2 285 7.5 101990 45
2010-03-23 09:50:29 51°9.312 2°36.539 3.9 317 7.5 101990 47
2010-03-23 09:50:33 51°9.306 2°36.516 4.1 281 7.5 101990 47
2010-03-23 09:50:38 51°9.299 2°36.487 3.9 317 7.5 101990 45
2010-03-23 09:50:43 51°9.292 2°36.459 3.5 279 7.5 101990 45
2010-03-23 09:50:49 51°9.283 2°36.425 3.3 318 7.4 101990 44
2010-03-23 09:50:53 51°9.277 2°36.402 3.5 282 7.4 101990 44
2010-03-23 09:50:58 51°9.27 2°36.374 3.9 320 7.5 101990 44
2010-03-23 09:51:02 51°9.264 2°36.351 3.8 282 7.5 101990 44
2010-03-23 09:51:08 51°9.256 2°36.317 3.8 317 7.5 101990 44
2010-03-23 09:51:13 51°9.249 2°36.288 3.8 285 7.5 101990 44
2010-03-23 09:51:18 51°9.242 2°36.259 3.8 318 7.5 101990 47
2010-03-23 09:51:23 51°9.234 2°36.231 3.9 280 7.5 101990 47
2010-03-23 09:51:28 51°9.227 2°36.202 3.5 318 7.5 101990 44
2010-03-23 09:51:33 51°9.22 2°36.173 3.7 285 7.5 101990 44
2010-03-23 09:51:38 51°9.213 2°36.145 3.6 319 7.5 101990 45
2010-03-23 09:51:42 51°9.207 2°36.122 3.5 282 7.5 101990 45
2010-03-23 09:51:49 51°9.197 2°36.082 3.3 318 7.5 101990 46
2010-03-23 09:51:53 51°9.191 2°36.059 3.5 281 7.5 101990 46
2010-03-23 09:51:58 51°9.184 2°36.031 3.4 319 7.5 101990 44
2010-03-23 09:52:03 51°9.177 2°36.002 3.6 280 7.5 101990 44
2010-03-23 09:52:08 51°9.17 2°35.974 3.4 319 7.5 101990 47
2010-03-23 09:52:14 51°9.161 2°35.939 3.2 -999 7.5 101990 47
2010-03-23 09:52:18 51°9.156 2°35.916 3.1 320 7.5 101980 44
2010-03-23 09:52:24 51°9.147 2°35.882 3.2 285 7.5 101980 44
2010-03-23 09:52:28 51°9.141 2°35.859 2.7 320 7.5 101980 46
2010-03-23 09:52:33 51°9.134 2°35.83 2.6 278 7.5 101980 46
2010-03-23 09:52:38 51°9.127 2°35.801 2.8 321 7.5 101980 47
2010-03-23 09:52:43 51°9.12 2°35.772 2.7 284 7.5 101980 47
2010-03-23 09:52:48 51°9.112 2°35.744 2.8 322 7.5 101990 44
2010-03-23 09:52:53 51°9.105 2°35.715 2.6 283 7.5 101990 44
2010-03-23 09:52:58 51°9.098 2°35.686 2.9 321 7.5 101990 45
2010-03-23 09:53:03 51°9.091 2°35.657 3.6 283 7.5 101990 45
2010-03-23 09:53:09 51°9.082 2°35.623 3.3 322 7.6 101980 45
2010-03-23 09:53:13 51°9.076 2°35.6 3.5 285 7.6 101980 45
2010-03-23 09:53:18 51°9.069 2°35.571 3.1 320 7.6 101980 44
2010-03-23 09:53:23 51°9.062 2°35.542 2.9 279 7.6 101980 44
2010-03-23 09:53:29 51°9.053 2°35.508 3.4 322 7.6 101980 47
2010-03-23 09:53:34 51°9.046 2°35.479 3 283 7.6 101980 47
2010-03-23 09:53:38 51°9.04 2°35.456 3.4 324 7.6 101980 47
2010-03-23 09:53:44 51°9.031 2°35.422 3.3 287 7.6 101980 47
2010-03-23 09:53:49 51°9.024 2°35.393 3.7 321 7.5 101980 47
2010-03-23 09:53:53 51°9.018 2°35.37 3.5 284 7.5 101980 47
2010-03-23 09:53:58 51°9.011 2°35.341 3.6 323 7.5 101980 47
2010-03-23 09:54:02 51°9.005 2°35.318 3.2 285 7.5 101980 47
2010-03-23 09:54:08 51°8.996 2°35.283 3.2 323 7.5 101980 44
2010-03-23 09:54:13 51°8.989 2°35.254 3.2 -999 7.5 101980 44
2010-03-23 09:54:18 51°8.982 2°35.226 3.2 321 7.5 101980 47
2010-03-23 09:54:23 51°8.974 2°35.197 2.9 279 7.5 101980 47
2010-03-23 09:54:28 51°8.967 2°35.168 2.9 322 7.5 101980 44
2010-03-23 09:54:34 51°8.958 2°35.133 3.7 283 7.5 101980 44
2010-03-23 09:54:38 51°8.952 2°35.11 3.4 322 7.5 101980 45
2010-03-23 09:54:43 51°8.945 2°35.082 3.9 280 7.5 101980 45
2010-03-23 09:54:49 51°8.936 2°35.047 1.9 321 7.6 101980 47
2010-03-23 09:54:53 51°8.93 2°35.024 3.8 285 7.6 101980 47
2010-03-23 09:54:58 51°8.922 2°34.996 4 321 7.6 101980 46
2010-03-23 09:55:04 51°8.911 2°34.963 3.8 283 7.6 101980 46
2010-03-23 09:55:09 51°8.902 2°34.936 4.1 320 7.6 101980 47
2010-03-23 09:55:13 51°8.895 2°34.914 3.9 285 7.6 101980 47
2010-03-23 09:55:18 51°8.886 2°34.887 4.2 321 7.6 101980 47
2010-03-23 09:55:24 51°8.874 2°34.854 4.2 278 7.6 101980 47
2010-03-23 09:55:29 51°8.864 2°34.827 4.3 321 7.6 101980 45
2010-03-23 09:55:33 51°8.856 2°34.806 4.5 280 7.6 101980 45
2010-03-23 09:55:38 51°8.846 2°34.781 4.6 320 7.6 101980 45
2010-03-23 09:55:43 51°8.835 2°34.755 4.5 286 7.6 101980 45
2010-03-23 09:55:49 51°8.822 2°34.724 4.9 317 7.6 101980 47
2010-03-23 09:55:53 51°8.813 2°34.703 5 285 7.6 101980 47
2010-03-23 09:55:58 51°8.802 2°34.678 4.8 319 7.6 101980 45
2010-03-23 09:56:02 51°8.793 2°34.658 4.9 285 7.6 101980 45
2010-03-23 09:56:08 51°8.779 2°34.628 5.1 319 7.6 101980 46
2010-03-23 09:56:13 51°8.767 2°34.604 5.3 -999 7.6 101980 46
2010-03-23 09:56:18 51°8.756 2°34.579 5.5 319 7.6 101980 45
2010-03-23 09:56:24 51°8.741 2°34.55 5.3 285 7.6 101980 45
2010-03-23 09:56:29 51°8.729 2°34.526 5.4 319 7.6 101980 45
2010-03-23 09:56:34 51°8.717 2°34.502 5.5 285 7.6 101980 45
2010-03-23 09:56:38 51°8.707 2°34.483 5 319 7.6 101980 47
2010-03-23 09:56:44 51°8.692 2°34.455 5.1 285 7.6 101980 47
2010-03-23 09:56:48 51°8.682 2°34.436 5.1 319 7.6 101980 45
2010-03-23 09:56:53 51°8.669 2°34.413 5.5 285 7.6 101980 45
2010-03-23 09:56:58 51°8.656 2°34.389 5.3 318 7.6 101980 46
2010-03-23 09:57:03 51°8.643 2°34.366 5.4 286 7.6 101980 46
2010-03-23 09:57:09 51°8.628 2°34.338 5.2 318 7.6 101980 44
2010-03-23 09:57:13 51°8.618 2°34.32 5.2 286 7.6 101980 44
2010-03-23 09:57:18 51°8.605 2°34.296 4.8 317 7.6 101980 46
2010-03-23 09:57:24 51°8.59 2°34.269 5 278 7.6 101980 46
2010-03-23 09:57:28 51°8.58 2°34.25 5.3 317 7.6 101980 46
2010-03-23 09:57:33 51°8.567 2°34.227 5 285 7.6 101980 46
2010-03-23 09:57:38 51°8.554 2°34.203 5.2 318 7.6 101980 45
2010-03-23 09:57:43 51°8.541 2°34.181 4.9 282 7.6 101980 45
2010-03-23 09:57:48 51°8.528 2°34.158 4.9 317 7.6 101990 47
2010-03-23 09:57:53 51°8.514 2°34.135 4.7 286 7.6 101990 47
2010-03-23 09:57:58 51°8.501 2°34.113 4.8 319 7.6 101990 45
2010-03-23 09:58:02 51°8.49 2°34.095 4.7 279 7.6 101990 45
2010-03-23 09:58:09 51°8.472 2°34.064 4.9 318 7.6 101980 46
2010-03-23 09:58:13 51°8.461 2°34.047 5 -999 7.6 101980 46
2010-03-23 09:58:18 51°8.448 2°34.025 4.5 317 7.7 101990 45
2010-03-23 09:58:23 51°8.435 2°34.004 4.6 286 7.7 101990 45
2010-03-23 09:58:28 51°8.422 2°33.984 4.1 318 7.7 101990 45
2010-03-23 09:58:33 51°8.41 2°33.965 4.2 285 7.7 101990 45
2010-03-23 09:58:38 51°8.399 2°33.947 4 316 7.7 101990 46
2010-03-23 09:58:42 51°8.39 2°33.932 3.6 280 7.7 101990 46
2010-03-23 09:58:48 51°8.377 2°33.911 3.6 317 7.6 101990 46
2010-03-23 09:58:53 51°8.367 2°33.894 3.7 279 7.6 101990 46
2010-03-23 09:58:58 51°8.356 2°33.876 3.3 318 7.6 101990 45
2010-03-23 09:59:04 51°8.344 2°33.856 2.8 285 7.6 101990 45
2010-03-23 09:59:09 51°8.334 2°33.84 3.1 30 7.6 101990 45
2010-03-23 09:59:13 51°8.327 2°33.826 2.8 286 7.6 101990 45
2010-03-23 09:59:18 51°8.317 2°33.81 2.8 28 7.6 101990 44
2010-03-23 09:59:24 51°8.306 2°33.79 2.7 286 7.6 101990 44
2010-03-23 09:59:29 51°8.296 2°33.774 2.9 39 7.6 101990 45
2010-03-23 09:59:33 51°8.289 2°33.761 2.4 282 7.6 101990 45
2010-03-23 09:59:38 51°8.279 2°33.746 2.6 23 7.6 101990 47
2010-03-23 09:59:43 51°8.27 2°33.73 2.3 282 7.6 101990 47
2010-03-23 09:59:49 51°8.259 2°33.711 2.5 31 7.6 101990 46
2010-03-23 09:59:53 51°8.251 2°33.698 2.4 279 7.6 101990 46
2010-03-23 09:59:58 51°8.242 2°33.682 2.3 33 7.6 101990 44
2010-03-23 10:00:02 51°8.234 2°33.67 2.4 282 7.6 101990 44
2010-03-23 10:00:08 51°8.223 2°33.651 2.4 18 7.6 101990 47
2010-03-23 10:00:13 51°8.214 2°33.636 2.2 -999 7.6 101990 47
2010-03-23 10:00:18 51°8.205 2°33.62 1.5 25 7.6 101990 45
2010-03-23 10:00:23 51°8.195 2°33.605 2.3 285 7.6 101990 45
2010-03-23 10:00:28 51°8.186 2°33.59 2.4 27 7.6 101990 46
2010-03-23 10:00:33 51°8.177 2°33.575 2.1 287 7.6 101990 46
2010-03-23 10:00:38 51°8.168 2°33.559 2.1 27 7.6 101990 45
2010-03-23 10:00:42 51°8.16 2°33.547 1.9 288 7.6 101990 45
2010-03-23 10:00:48 51°8.149 2°33.528 1.7 33 7.6 101990 45
2010-03-23 10:00:53 51°8.14 2°33.513 1.6 287 7.6 101990 45
2010-03-23 10:00:58 51°8.131 2°33.498 1.4 24 7.6 101990 47
2010-03-23 10:01:03 51°8.122 2°33.483 1.3 282 7.6 101990 47
2010-03-23 10:01:08 51°8.113 2°33.467 1.4 31 7.6 101990 44
2010-03-23 10:01:14 51°8.102 2°33.449 1.4 285 7.6 101990 44
2010-03-23 10:01:18 51°8.095 2°33.437 1.6 28 7.6 101990 46
2010-03-23 10:01:24 51°8.084 2°33.418 1.8 286 7.6 101990 46
2010-03-23 10:01:28 51°8.077 2°33.406 1.9 317 7.6 101990 46
2010-03-23 10:01:33 51°8.069 2°33.391 1.3 288 7.6 101990 46
2010-03-23 10:01:38 51°8.06 2°33.378 0.7 26 7.6 101990 46
2010-03-23 10:01:43 51°8.052 2°33.364 0.8 284 7.6 101990 46
2010-03-23 10:01:48 51°8.045 2°33.352 0.9 21 7.6 101990 46
2010-03-23 10:01:53 51°8.037 2°33.339 0.7 279 7.6 101990 46
2010-03-23 10:01:58 51°8.03 2°33.329 0.6 235 7.6 101990 46
2010-03-23 10:02:04 51°8.021 2°33.316 0.3 278 7.6 101990 46